Location: Praha
(50.0830°N, 14.4670°E)
Time: 05:41:51
(UTC+02:00)

ISS - Pass Details

Date: 20 May 2021
Orbit: 417 x 422 km, 51.6° (Epoch: 13 June)

Event Time Altitude Azimuth Distance (km) Brightness Sun altitude
Rises 01:19:22 0° 287° (WNW) 2,371 0.2 -19.8°
Reaches altitude 10° 01:21:29 10° 283° (WNW) 1,505 -0.9 -19.8°
Enters shadow 01:23:07 25° 273° (W) 881 -2.2 -19.7°
